Location: Sawmill Trailhead
(33.5800°N, 116.4497°W)
Time: 10:26:43
(UTC-08:00)

Amateur Radio Satellites - All Passes

Search period start: 26 January 2015 09:56
Search period end: 27 January 2015 09:56
Location: Sawmill Trailhead, 33.5800°N, 116.4497°W

Satellite Date Start Highest point End Downlink Frequencies (MHz)
Time Altitude Azimuth
UWE-3 26 Jan 09:58:18 10:02:49 72° 283° (WNW) 10:07:09 435.000/436.395/437.385
QB50P2 26 Jan 10:00:27 10:04:42 82° 79° (E) 10:09:02 145.880/145.840
BRITE-PL 26 Jan 10:02:00 10:04:37 13° 295° (WNW) 10:06:52 437.365/2234.400
HUMSAT D 26 Jan 10:02:10 10:06:19 52° 99° (E) 10:10:24 437.325/437.525
50 SAT 26 Jan 10:08:38 10:12:31 45° 99° (E) 10:16:23 437.505
QB50P1 26 Jan 10:11:00 10:15:15 75° 259° (WSW) 10:19:32 145.935-145.965
COMPASS 1 26 Jan 10:11:29 10:12:51 11° 292° (WNW) 10:13:58 437.405
VERMONT LUNAR 26 Jan 10:13:07 10:16:28 43° 342° (NNW) 10:19:51 437.305
GOMX 1 26 Jan 10:14:13 10:16:42 13° 295° (WNW) 10:18:50 467.674
VELOX 1 26 Jan 10:20:47 10:25:16 69° 102° (ESE) 10:29:44 145.980
POLYITAN 1 26 Jan 10:23:38 10:27:48 51° 260° (W) 10:32:01 437.675
ANTELSAT 26 Jan 10:25:46 10:29:58 31° 264° (W) 10:34:08 437.575/2403.000
Oscar 11 26 Jan 10:28:54 10:31:53 18° 290° (WNW) 10:34:42 145.826/435.025
SO-50 26 Jan 10:34:24 10:38:55 88° 297° (WNW) 10:43:37 436.795
TIGRISAT 26 Jan 10:35:51 10:39:45 25° 265° (W) 10:43:35 435.000
CUBEBUG 1 26 Jan 10:39:18 10:43:30 42° 98° (E) 10:47:45 437.445
BUGSAT 1 26 Jan 10:40:24 10:44:14 41° 261° (W) 10:48:08 437.445
GONETS M04 26 Jan 10:43:19 10:46:04 12° 62° (ENE) 10:49:35
AIST 1 26 Jan 10:45:13 10:48:56 31° 92° (E) 10:52:43
BEESAT 2 26 Jan 10:45:21 10:46:47 12° 47° (NE) 10:48:24 435.950
POPSAT HIP 1 26 Jan 10:46:03 10:49:45 28° 264° (W) 10:53:25 437.405
CUBEBUG 2 26 Jan 10:49:05 10:52:06 17° 291° (WNW) 10:54:52 437.445
DUCHIFAT 1 26 Jan 10:50:51 10:54:24 25° 265° (W) 10:57:53 145.980
PHONESAT 2.4 26 Jan 10:52:44 10:56:13 42° 343° (NNW) 10:59:42 2401.200-2431.200
DELFI C3 26 Jan 10:54:54 10:55:17 10° 292° (WNW) 10:55:24 145.870
BEESAT 3 26 Jan 11:01:37 11:04:34 19° 51° (NE) 11:07:37 437.485
UKube-1 26 Jan 11:02:58 11:05:20 14° 292° (WNW) 11:07:31 .
ZACube-1 26 Jan 11:11:34 11:13:47 13° 292° (WNW) 11:15:43 437.345
ESTCUBE 1 26 Jan 11:19:45 11:24:12 58° 285° (WNW) 11:28:39 437.505/2401.250
TISAT 1 26 Jan 11:26:17 11:30:07 31° 97° (E) 11:33:56 437.305
AISAT 26 Jan 11:28:14 11:31:34 20° 290° (WNW) 11:34:45 437.250
HUMSAT D 26 Jan 11:40:38 11:41:42 11° 292° (WNW) 11:42:31 437.325/437.525
50 SAT 26 Jan 11:45:55 11:47:17 11° 292° (WNW) 11:48:25 437.505
VERMONT LUNAR 26 Jan 11:52:07 11:55:06 25° 359° (N) 11:58:05 437.305
SWISSCUBE 26 Jan 12:00:37 12:01:39 11° 90° (E) 12:03:02 437.505
AIST 2 26 Jan 12:00:43 12:04:27 29° 55° (NE) 12:08:11 435.215
RS-15 26 Jan 12:03:41 12:11:23 21° 34° (NNE) 12:19:47 29.354- 29.394
SPROUT 26 Jan 12:13:31 12:17:50 65° 284° (WNW) 12:22:07 437.525
BEESAT 26 Jan 12:15:34 12:18:17 16° 92° (E) 12:21:14 436.000
CUBEBUG 1 26 Jan 12:17:03 12:19:35 15° 291° (WNW) 12:21:56 437.445
ITUPSAT 1 26 Jan 12:17:20 12:20:09 16° 92° (E) 12:23:11 437.325
SO-50 26 Jan 12:19:55 12:20:17 10° 318° (NW) 12:20:24 436.795
BEESAT 2 26 Jan 12:21:21 12:25:28 61° 244° (WSW) 12:29:30 435.950
AIST 1 26 Jan 12:24:01 12:26:44 16° 287° (WNW) 12:29:16
Oscar 19 26 Jan 12:30:58 12:36:10 82° 77° (ENE) 12:41:24 437.125/150
PHONESAT 2.4 26 Jan 12:32:11 12:35:19 26° 0° (N) 12:38:27 2401.200-2431.200
GONETS M04 26 Jan 12:35:54 12:44:38 79° 83° (E) 12:53:20
BEESAT 3 26 Jan 12:39:07 12:42:49 31° 247° (WSW) 12:46:25 437.485
ITAMSAT 1 26 Jan 12:40:42 12:45:14 33° 71° (ENE) 12:49:52 435.822/435.867
TISAT 1 26 Jan 13:02:45 13:05:44 18° 290° (WNW) 13:08:34 437.305
Gurwin Techsat 1B 26 Jan 13:18:42 13:23:49 53° 74° (ENE) 13:29:00 435.225
KKS-1 26 Jan 13:27:16 13:30:04 17° 93° (E) 13:33:02 437.445
STARS 26 Jan 13:29:54 13:30:31 10° 90° (E) 13:31:28 437.465
VERMONT LUNAR 26 Jan 13:30:25 13:33:45 39° 16° (NNE) 13:37:07 437.305
AO-7 26 Jan 13:33:39 13:39:23 22° 59° (ENE) 13:45:29 29.400- 29.500
SWISSCUBE 26 Jan 13:35:16 13:39:59 60° 285° (WNW) 13:44:42 437.505
AIST 2 26 Jan 13:39:43 13:42:55 20° 249° (WSW) 13:45:58 435.215
BEESAT 26 Jan 13:51:53 13:56:24 43° 287° (WNW) 14:00:53 436.000
ITUPSAT 1 26 Jan 13:53:46 13:58:18 42° 287° (WNW) 14:02:47 437.325
CUSAT 1 26 Jan 14:03:09 14:05:58 14° 60° (ENE) 14:08:47 437.405
HORYU 2 26 Jan 14:08:45 14:13:06 51° 74° (ENE) 14:17:30 437.375
PCSat 26 Jan 14:09:01 14:14:28 76° 63° (ENE) 14:19:53 145.827
PHONESAT 2.4 26 Jan 14:10:54 14:14:25 43° 17° (NNE) 14:17:55 2401.200-2431.200
RS-15 26 Jan 14:14:51 14:26:18 74° 59° (ENE) 14:38:17 29.354- 29.394
ITAMSAT 1 26 Jan 14:20:37 14:24:48 24° 265° (W) 14:28:53 435.822/435.867
GONETS M04 26 Jan 14:35:18 14:40:38 17° 277° (W) 14:45:23
M-CUBED/EXP-1 PRIME 26 Jan 14:42:34 14:45:30 29° 103° (ESE) 14:48:33 437.505
DANDE 26 Jan 14:58:37 15:04:56 40° 72° (ENE) 15:09:46 436.750
Gurwin Techsat 1B 26 Jan 15:01:01 15:04:12 15° 269° (W) 15:07:05 435.225
KKS-1 26 Jan 15:02:45 15:06:53 35° 287° (WNW) 15:10:56 437.445
STARS 26 Jan 15:03:04 15:07:25 54° 285° (WNW) 15:11:44 437.465
VERMONT LUNAR 26 Jan 15:08:32 15:11:56 46° 211° (SSW) 15:15:21 437.305
AUBIESAT-1 26 Jan 15:18:02 15:21:21 87° 292° (WNW) 15:24:47 437.475
AO-7 26 Jan 15:23:06 15:31:28 75° 255° (WSW) 15:39:52 29.400- 29.500
JAS-2 26 Jan 15:29:31 15:35:07 53° 74° (ENE) 15:40:17 435.910
CUSAT 1 26 Jan 15:43:58 15:50:09 62° 267° (W) 15:54:42 437.405
HORYU 2 26 Jan 15:48:24 15:50:08 12° 269° (W) 15:51:34 437.375
PHONESAT 2.4 26 Jan 15:49:31 15:53:00 41° 212° (SSW) 15:56:28 2401.200-2431.200
PCSat 26 Jan 15:55:55 15:57:20 11° 256° (WSW) 15:58:21 145.827
Cubesat XI-IV 26 Jan 16:02:00 16:04:32 14° 66° (ENE) 16:07:20 437.490
O/OREOS (USA 219) 26 Jan 16:05:21 16:09:45 66° 108° (ESE) 16:14:14 437.305
M-CUBED/EXP-1 PRIME 26 Jan 16:19:19 16:20:20 11° 294° (WNW) 16:21:10 437.505
MOZHAYETS 4 26 Jan 16:19:43 16:24:10 52° 99° (E) 16:28:38
CUTE-I 26 Jan 16:21:22 16:25:16 22° 68° (ENE) 16:29:20 437.470
RS-15 26 Jan 16:28:49 16:38:01 27° 254° (WSW) 16:46:55 29.354- 29.394
DANDE 26 Jan 16:42:58 16:47:51 22° 276° (W) 16:51:39 436.750
JAS-2 26 Jan 17:17:14 17:20:34 15° 267° (W) 17:23:26 435.910
AO-7 26 Jan 17:23:51 17:25:44 10° 273° (W) 17:26:43 29.400- 29.500
JUGNU 26 Jan 17:29:07 17:32:21 15° 168° (SSE) 17:35:40 437.505
Cubesat XI-IV 26 Jan 17:38:54 17:44:09 63° 259° (WSW) 17:49:27 437.490
YUBILEINY 26 Jan 17:40:56 17:42:17 11° 80° (E) 17:44:31 435.215
PRISM 26 Jan 17:44:05 17:48:00 40° 99° (E) 17:51:56 437.425
O/OREOS (USA 219) 26 Jan 17:49:10 17:49:46 10° 305° (NW) 17:50:05 437.305
MOZHAYETS 4 26 Jan 17:59:00 18:01:01 12° 292° (WNW) 18:02:48
CUTE-I 26 Jan 18:00:10 18:05:07 39° 262° (W) 18:10:04 437.470
CUBESAT XI-V 26 Jan 18:03:45 18:08:18 49° 99° (E) 18:12:52 437.345
SRMSAT 26 Jan 18:06:10 18:06:58 10° 163° (SSE) 18:07:55 437.500
HO-68 26 Jan 18:31:49 18:36:51 22° 63° (ENE) 18:42:09 435.675
STRAND 1 26 Jan 18:38:02 18:43:13 77° 103° (ESE) 18:48:22 437.568
SEEDS 26 Jan 18:53:14 18:54:26 11° 68° (ENE) 18:55:54 437.485
SO-50 26 Jan 19:09:59 19:14:17 30° 53° (NE) 19:18:37 436.795
JUGNU 26 Jan 19:16:23 19:20:45 21° 177° (S) 19:25:08 437.505
PRISM 26 Jan 19:21:09 19:23:14 13° 291° (WNW) 19:25:06 437.425
COMPASS 1 26 Jan 19:21:53 19:24:59 21° 71° (ENE) 19:28:13 437.405
CANX-2 26 Jan 19:26:43 19:30:42 38° 74° (ENE) 19:34:42 2200.000
BRITE-PL 26 Jan 19:27:37 19:32:18 54° 75° (ENE) 19:37:28 437.365/2234.400
YUBILEINY 26 Jan 19:29:19 19:37:58 78° 94° (E) 19:46:40 435.215
GOMX 1 26 Jan 19:37:31 19:42:11 48° 74° (ENE) 19:47:14 467.674
CUBESAT XI-V 26 Jan 19:42:52 19:45:24 14° 292° (WNW) 19:47:43 437.345
Oscar 11 26 Jan 19:44:11 19:46:45 16° 70° (ENE) 19:49:31 145.826/435.025
AAUSAT CUBESAT 2 26 Jan 19:49:31 19:53:25 38° 74° (ENE) 19:57:21 437.432
CUTE 1.7 + AOD 2 26 Jan 19:50:58 19:55:15 70° 77° (ENE) 19:59:32 437.475
SRMSAT 26 Jan 19:51:29 19:55:31 19° 172° (S) 19:59:34 437.500
DELFI C3 26 Jan 20:01:49 20:04:40 19° 71° (ENE) 20:07:40 145.870
DOVE 4 26 Jan 20:02:50 20:07:39 64° 75° (ENE) 20:12:47 437.250
CUBEBUG 2 26 Jan 20:06:11 20:09:42 22° 70° (ENE) 20:13:23 437.445
CINEMA 3 26 Jan 20:10:53 20:15:25 43° 74° (ENE) 20:20:10 145.822/145.860
HO-68 26 Jan 20:17:01 20:24:06 62° 258° (WSW) 20:31:10 435.675
UKube-1 26 Jan 20:17:13 20:20:31 22° 70° (ENE) 20:23:56 .
STRAND 1 26 Jan 20:20:28 20:21:51 11° 295° (WNW) 20:22:54 437.568
SEEDS 26 Jan 20:25:43 20:29:54 51° 261° (W) 20:34:03 437.485
ZACube-1 26 Jan 20:25:58 20:29:34 24° 71° (ENE) 20:33:19 437.345
DX 1 26 Jan 20:33:56 20:37:54 36° 73° (ENE) 20:41:56 434.975-435.025
FUNcube-1 26 Jan 20:38:25 20:42:27 32° 73° (ENE) 20:46:35 145.935
AISAT 26 Jan 20:46:21 20:49:16 18° 69° (ENE) 20:52:22 437.250
SO-50 26 Jan 20:50:35 20:54:48 28° 248° (WSW) 20:58:55 436.795
HUMSAT D 26 Jan 20:50:51 20:54:15 23° 71° (ENE) 20:57:46 437.325/437.525
UWE-3 26 Jan 20:51:01 20:55:33 57° 75° (ENE) 21:00:11 435.000/436.395/437.385
50 SAT 26 Jan 20:53:16 20:55:58 18° 71° (ENE) 20:58:48 437.505
COMPASS 1 26 Jan 20:57:01 21:00:36 26° 264° (W) 21:04:08 437.405
CANX-2 26 Jan 21:04:25 21:06:50 14° 268° (W) 21:09:04 2200.000
JUGNU 26 Jan 21:05:01 21:09:10 19° 187° (S) 21:13:17 437.505
BRITE-PL 26 Jan 21:08:53 21:11:24 13° 272° (W) 21:13:41 437.365/2234.400
VELOX 1 26 Jan 21:14:53 21:18:55 37° 73° (ENE) 21:23:02 145.980
GOMX 1 26 Jan 21:17:40 21:20:43 16° 271° (W) 21:23:38 467.674
Oscar 11 26 Jan 21:18:40 21:22:42 36° 262° (W) 21:26:43 145.826/435.025
AAUSAT CUBESAT 2 26 Jan 21:27:04 21:29:18 14° 268° (W) 21:31:18 437.432
YUBILEINY 26 Jan 21:30:03 21:35:54 18° 294° (WNW) 21:41:14 435.215
CUBEBUG 1 26 Jan 21:32:29 21:35:45 22° 71° (ENE) 21:39:08 437.445
ISS 26 Jan 21:35:26 21:38:37 50° 133° (SE) 21:41:49 145.825
DELFI C3 26 Jan 21:36:19 21:39:47 26° 264° (W) 21:43:13 145.870
NANOSAT C BR1 26 Jan 21:39:27 21:41:13 13° 91° (E) 21:43:15 145.865
SRMSAT 26 Jan 21:39:40 21:44:05 21° 182° (S) 21:48:29 437.500
CUBEBUG 2 26 Jan 21:42:01 21:46:13 32° 264° (W) 21:50:28 437.445
DOVE 4 26 Jan 21:44:15 21:46:02 11° 273° (W) 21:47:28 437.250
UNISAT 6 26 Jan 21:46:26 21:50:16 28° 96° (E) 21:54:04 437.425
CINEMA 3 26 Jan 21:49:41 21:52:53 17° 269° (W) 21:55:57 145.822/145.860
QB50P2 26 Jan 21:51:10 21:54:07 18° 93° (E) 21:57:11 145.880/145.840
UKube-1 26 Jan 21:52:59 21:56:36 25° 264° (W) 22:00:09 .
QB50P1 26 Jan 22:01:04 22:04:32 24° 95° (E) 22:08:03 145.935-145.965
ZACube-1 26 Jan 22:01:58 22:05:51 27° 265° (W) 22:09:43 437.345
DX 1 26 Jan 22:11:42 22:14:21 15° 267° (W) 22:16:48 434.975-435.025
POLYITAN 1 26 Jan 22:13:37 22:17:33 34° 97° (E) 22:21:30 437.675
ESTCUBE 1 26 Jan 22:15:18 22:19:46 78° 78° (ENE) 22:24:16 437.505/2401.250
FUNcube-1 26 Jan 22:15:31 22:18:53 19° 267° (W) 22:22:08 145.935
TISAT 1 26 Jan 22:16:21 22:18:39 15° 69° (ENE) 22:21:09 437.305
AISAT 26 Jan 22:21:40 22:25:41 33° 263° (W) 22:29:43 437.250
ANTELSAT 26 Jan 22:21:43 22:26:12 78° 101° (ESE) 22:30:32 437.575/2403.000
HUMSAT D 26 Jan 22:26:24 22:29:59 24° 265° (W) 22:33:30 437.325/437.525
BUGSAT 1 26 Jan 22:26:43 22:30:41 37° 98° (E) 22:34:40 437.445
50 SAT 26 Jan 22:27:15 22:30:54 29° 264° (W) 22:34:32 437.505
UWE-3 26 Jan 22:30:56 22:32:32 11° 271° (W) 22:33:49 435.000/436.395/437.385
TIGRISAT 26 Jan 22:31:07 22:35:36 83° 283° (WNW) 22:39:56 435.000
AIST 1 26 Jan 22:33:21 22:37:42 82° 83° (E) 22:42:05
POPSAT HIP 1 26 Jan 22:34:52 22:39:10 63° 100° (E) 22:43:25 437.405
DUCHIFAT 1 26 Jan 22:39:08 22:43:26 71° 100° (E) 22:47:43 145.980
VELOX 1 26 Jan 22:52:55 22:55:42 16° 267° (W) 22:58:16 145.980
JUGNU 26 Jan 22:55:46 22:57:33 11° 196° (SSW) 22:59:12 437.505
SPROUT 26 Jan 23:03:38 23:07:50 56° 75° (ENE) 23:12:05 437.525
CUBEBUG 1 26 Jan 23:08:22 23:12:02 26° 264° (W) 23:15:38 437.445
ISS 26 Jan 23:13:16 23:15:22 15° 329° (NNW) 23:17:24 145.825
NANOSAT C BR1 26 Jan 23:13:17 23:17:23 42° 286° (WNW) 23:21:25 145.865
BEESAT 26 Jan 23:19:47 23:21:28 12° 67° (ENE) 23:23:25 436.000
ITUPSAT 1 26 Jan 23:21:49 23:23:38 12° 67° (ENE) 23:25:44 437.325
UNISAT 6 26 Jan 23:23:35 23:26:56 20° 290° (WNW) 23:30:05 437.425
QB50P2 26 Jan 23:26:19 23:30:07 29° 287° (WNW) 23:33:48 145.880/145.840
SRMSAT 26 Jan 23:29:06 23:32:38 16° 192° (SSW) 23:36:05 437.500
QB50P1 26 Jan 23:36:54 23:40:22 23° 289° (WNW) 23:43:41 145.935-145.965
GONETS M04 26 Jan 23:39:26 23:44:08 17° 83° (E) 23:49:27
TISAT 1 26 Jan 23:50:17 23:54:12 37° 262° (W) 23:58:09 437.305
POLYITAN 1 26 Jan 23:50:27 23:53:16 17° 291° (WNW) 23:55:53 437.675
BUGSAT 1 27 Jan 00:03:19 00:05:55 15° 291° (WNW) 00:08:21 437.445
SWISSCUBE 27 Jan 00:37:46 00:42:32 84° 258° (WSW) 00:47:18 437.505
Oscar 19 27 Jan 00:46:59 00:51:47 40° 98° (E) 00:56:35 437.125/150
BEESAT 27 Jan 00:54:11 00:58:53 60° 259° (W) 01:03:36 436.000
ITUPSAT 1 27 Jan 00:56:26 01:01:07 58° 259° (W) 01:05:49 437.325
ITAMSAT 1 27 Jan 00:58:34 01:01:40 16° 92° (E) 01:05:01 435.822/435.867
M-CUBED/EXP-1 PRIME 27 Jan 01:28:09 01:31:39 26° 69° (ENE) 01:34:59 437.505
GONETS M04 27 Jan 01:31:20 01:40:08 81° 276° (W) 01:48:55
Gurwin Techsat 1B 27 Jan 01:39:23 01:43:57 29° 96° (E) 01:48:35 435.225
STARS 27 Jan 01:55:51 02:00:17 78° 76° (ENE) 02:04:45 437.465
AIST 2 27 Jan 01:56:21 01:58:57 17° 110° (ESE) 02:01:44 435.215
KKS-1 27 Jan 01:56:31 02:00:57 65° 259° (W) 02:05:25 437.445
AUBIESAT-1 27 Jan 02:02:49 02:06:59 64° 72° (ENE) 02:10:49 437.475
HORYU 2 27 Jan 02:06:04 02:08:09 13° 92° (E) 02:10:29 437.375
BEESAT 2 27 Jan 02:12:11 02:16:15 69° 117° (ESE) 02:20:24 435.950
O/OREOS (USA 219) 27 Jan 02:19:14 02:23:48 65° 69° (ENE) 02:28:22 437.305
DANDE 27 Jan 02:25:48 02:27:27 11° 80° (E) 02:29:55 436.750
Oscar 19 27 Jan 02:27:07 02:30:54 20° 292° (WNW) 02:34:30 437.125/150
BEESAT 3 27 Jan 02:28:57 02:33:00 63° 300° (WNW) 02:37:07 437.485
RS-15 27 Jan 02:31:36 02:32:53 11° 101° (E) 02:35:28 29.354- 29.394
ITAMSAT 1 27 Jan 02:36:27 02:41:29 48° 287° (WNW) 02:46:29 435.822/435.867
CUSAT 1 27 Jan 03:02:44 03:09:11 30° 87° (E) 03:16:21 437.405
M-CUBED/EXP-1 PRIME 27 Jan 03:03:24 03:06:37 20° 259° (W) 03:09:31 437.505
PCSat 27 Jan 03:05:34 03:08:52 17° 106° (ESE) 03:12:26 145.827
MOZHAYETS 4 27 Jan 03:18:05 03:22:05 31° 72° (ENE) 03:26:08
Gurwin Techsat 1B 27 Jan 03:19:20 03:23:53 28° 290° (WNW) 03:28:18 435.225
AO-7 27 Jan 03:29:31 03:37:30 49° 101° (E) 03:45:28 29.400- 29.500
AIST 2 27 Jan 03:33:23 03:37:19 36° 304° (NW) 03:41:17 435.215
GONETS M04 27 Jan 03:34:46 03:38:39 13° 298° (WNW) 03:41:47
HORYU 2 27 Jan 03:40:53 03:45:07 42° 286° (WNW) 03:49:16 437.375
BEESAT 2 27 Jan 03:54:02 03:55:01 11° 314° (NW) 03:55:47 435.950
DANDE 27 Jan 04:01:55 04:09:33 70° 95° (E) 04:18:13 436.750
ISS 27 Jan 04:07:40 04:09:13 13° 28° (NNE) 04:10:52 145.825
JAS-2 27 Jan 04:25:53 04:31:35 71° 102° (ESE) 04:38:02 435.910
PRISM 27 Jan 04:31:53 04:34:39 18° 70° (ENE) 04:37:34 437.425
RS-15 27 Jan 04:32:59 04:43:48 71° 114° (ESE) 04:54:41 29.354- 29.394
CUSAT 1 27 Jan 04:44:11 04:51:51 54° 284° (WNW) 05:00:08 437.405
CUTE-I 27 Jan 04:44:17 04:45:38 11° 89° (E) 04:47:24 437.470
PCSat 27 Jan 04:46:40 04:51:55 51° 299° (WNW) 04:57:13 145.827
MOZHAYETS 4 27 Jan 04:55:56 04:59:23 20° 266° (W) 05:02:41
CUBESAT XI-V 27 Jan 05:03:43 05:07:40 30° 72° (ENE) 05:11:41 437.345
AO-7 27 Jan 05:22:48 05:30:02 33° 297° (WNW) 05:37:03 29.400- 29.500
ISS 27 Jan 05:42:48 05:46:06 72° 226° (SW) 05:49:23 145.825
YUBILEINY 27 Jan 05:45:07 05:52:34 31° 72° (ENE) 06:00:15 435.215
DANDE 27 Jan 05:47:32 05:53:55 24° 294° (WNW) 06:00:23 436.750
STRAND 1 27 Jan 05:49:54 05:54:58 73° 76° (ENE) 06:00:04 437.568
Cubesat XI-IV 27 Jan 06:00:14 06:05:37 74° 102° (ESE) 06:10:59 437.490
PRISM 27 Jan 06:06:27 06:10:02 28° 263° (W) 06:13:33 437.425
JAS-2 27 Jan 06:13:21 06:16:24 14° 292° (WNW) 06:19:14 435.910
CUTE-I 27 Jan 06:20:58 06:26:19 71° 285° (WNW) 06:31:40 437.470
CUBESAT XI-V 27 Jan 06:41:38 06:45:10 21° 266° (W) 06:48:34 437.345
RS-15 27 Jan 06:47:46 06:57:12 31° 317° (NW) 07:06:27 29.354- 29.394
BRITE-PL 27 Jan 07:37:03 07:41:49 28° 93° (E) 07:46:30 437.365/2234.400
YUBILEINY 27 Jan 07:41:21 07:49:42 49° 270° (W) 07:57:57 435.215
CUTE 1.7 + AOD 2 27 Jan 07:41:50 07:44:22 16° 92° (E) 07:47:05 437.475
Cubesat XI-IV 27 Jan 07:42:59 07:45:10 12° 295° (WNW) 07:47:02 437.490
GOMX 1 27 Jan 07:44:32 07:48:34 22° 92° (E) 07:52:38 467.674
HO-68 27 Jan 07:49:34 07:55:44 32° 96° (E) 08:02:03 435.675
VERMONT LUNAR 27 Jan 07:53:13 07:56:12 28° 146° (SE) 07:59:15 437.305
DOVE 4 27 Jan 08:07:11 08:11:25 26° 93° (E) 08:15:34 437.250
CINEMA 3 27 Jan 08:12:03 08:14:29 14° 90° (E) 08:17:07 145.822/145.860
SEEDS 27 Jan 08:14:37 08:18:26 34° 97° (E) 08:22:15 437.485
PHONESAT 2.4 27 Jan 08:38:32 08:41:51 36° 148° (SSE) 08:45:13 2401.200-2431.200
UNISAT 6 27 Jan 08:42:14 08:45:20 18° 69° (ENE) 08:48:37 437.425
COMPASS 1 27 Jan 08:44:09 08:48:18 67° 100° (E) 08:52:26 437.405
UWE-3 27 Jan 08:46:59 08:49:33 16° 91° (E) 08:52:17 435.000/436.395/437.385
CANX-2 27 Jan 08:51:49 08:55:59 58° 284° (WNW) 09:00:07 2200.000
QB50P1 27 Jan 08:52:17 08:53:38 12° 68° (ENE) 08:55:15 145.935-145.965
POLYITAN 1 27 Jan 09:04:08 09:06:48 17° 70° (ENE) 09:09:40 437.675
Oscar 11 27 Jan 09:09:49 09:14:01 52° 99° (E) 09:18:14 145.826/435.025
AAUSAT CUBESAT 2 27 Jan 09:12:14 09:16:20 61° 284° (WNW) 09:20:24 437.432
RS-15 27 Jan 09:13:01 09:14:58 10° 350° (N) 09:16:39 29.354- 29.394
BUGSAT 1 27 Jan 09:14:34 09:16:54 16° 69° (ENE) 09:19:27 437.445
BRITE-PL 27 Jan 09:15:15 09:20:19 33° 289° (WNW) 09:25:07 437.365/2234.400
ANTELSAT 27 Jan 09:16:33 09:20:59 43° 74° (ENE) 09:25:29 437.575/2403.000
CUTE 1.7 + AOD 2 27 Jan 09:16:39 09:20:26 32° 287° (WNW) 09:24:10 437.475
DELFI C3 27 Jan 09:19:57 09:23:56 56° 100° (E) 09:27:53 145.870
SO-50 27 Jan 09:21:35 09:24:57 22° 111° (ESE) 09:28:31 436.795
GOMX 1 27 Jan 09:21:50 09:26:51 38° 288° (WNW) 09:31:36 467.674
POPSAT HIP 1 27 Jan 09:24:20 09:27:57 28° 72° (ENE) 09:31:40 437.405
TIGRISAT 27 Jan 09:25:28 09:30:02 53° 75° (ENE) 09:34:39 435.000
DUCHIFAT 1 27 Jan 09:28:12 09:31:55 31° 73° (ENE) 09:35:43 145.980
VERMONT LUNAR 27 Jan 09:30:48 09:34:14 52° 340° (NNW) 09:37:40 437.305
HO-68 27 Jan 09:36:56 09:43:34 41° 292° (WNW) 09:50:06 435.675
CUBEBUG 2 27 Jan 09:37:11 09:41:47 78° 102° (ESE) 09:46:12 437.445
UKube-1 27 Jan 09:43:52 09:48:13 73° 102° (ESE) 09:52:34 .
DOVE 4 27 Jan 09:44:38 09:49:11 30° 289° (WNW) 09:53:27 437.250
CINEMA 3 27 Jan 09:47:25 09:52:04 46° 286° (WNW) 09:56:28 145.822/145.860
SEEDS 27 Jan 09:51:27 09:54:02 16° 290° (WNW) 09:56:26 437.485
